Location: Zagreb
(45.8000°N, 16.0000°E)
Time: 19:49:27
(UTC+01:00)

DX 1 - Pass Details

Date: 06 November 2020
Orbit: 619 x 630 km, 98.5° (Epoch: 01 December)

Event Time Altitude Azimuth Distance (km) Brightness Sun altitude
Exits shadow 19:55:49 11° 334° (NNW) 1,955 ? -35.1°
Maximum altitude 19:58:10 16° 300° (WNW) 1,664 ? -35.5°
Drops below altitude 10° 20:00:44 10° 263° (W) 1,999 ? -36.0°
Sets 20:03:40 0° 242° (WSW) 2,904 ? -36.5°
